Flag for Luxembourg Weather past 2 weeks in Esch-sur-Alzette, Luxembourg

Now
61 °F

Cool.


Feels Like: 61 °F
Forecast: 49 / 65 °F
Wind: 2 mph from South

Location: Luxembourg Airport

Current Time: Sep 20, 2014 at 4:06:05 AM

Latest Report: Sep 20, 2014 at 3:20 AM


Visibility: 4 mi

Pressure: 29.98 "Hg

Humidity: 94%

Dew point: 59 °F

Location of Esch-sur-AlzetteLocation

Historic Weather in Esch-sur-Alzette — Graph

°F

Esch-sur-Alzette temperature yesterday

Maximum temperature yesterday: 73 °F (at 3:50 PM)
Minimum temperature yesterday: 61 °F (at 5:20 AM)
Average temperature yesterday: 65 °F

Past Weeks' High & Low Weather Summary

 TemperatureHumidityPressure
High77 °F (Sep 18, 3:50 PM)100% (Sep 5, 3:50 AM)30.21 "Hg (Sep 5, 3:50 AM)
Low48 °F (Sep 12, 6:20 AM)43% (Sep 12, 4:20 PM)29.83 "Hg (Sep 18, 5:50 AM)
Average62 °F78%30.01 "Hg
* Reported Sep 5 2:20 AM — Sep 20 2:20 AM, Esch-sur-Alzette, Weather by CustomWeather, © 2014

Note: Actual official high and low records may vary slightly from our data, if they occured in-between our weather recording intervals... More about our weather records

Advertising

Esch-sur-Alzette weather history for previous 24 hours

 ConditionsComfort  
Time TempWeatherWind HumidityBarometerVisibility
2:20 AM
Sep 20
61 °FCool.2 mph94%29.98 "Hg6 mi
1:50 AM61 °FPartly cloudy.2 mph94%29.98 "HgN/A
1:20 AM63 °FPassing clouds.3 mph88%29.98 "HgN/A
12:50 AM63 °FMild.2 mph88%29.98 "HgN/A
12:20 AM63 °FClear.1 mph88%29.98 "Hg10 mi
11:50 PM
Sep 19
63 °FClear.2 mph88%29.98 "Hg10 mi
11:20 PM64 °FClear.1 mph83%29.98 "Hg10 mi
10:50 PM64 °FClear.5 mph88%29.95 "Hg10 mi
10:20 PM64 °FClear.5 mph88%29.95 "Hg10 mi
9:50 PM64 °FPassing clouds.7 mph88%29.95 "HgN/A
9:20 PM66 °FPassing clouds.5 mph88%29.95 "HgN/A
8:50 PM66 °FPassing clouds.6 mph88%29.95 "HgN/A
8:20 PM68 °FPassing clouds.5 mph83%29.95 "HgN/A
7:50 PM68 °FPassing clouds.3 mph83%29.95 "HgN/A
7:20 PM70 °FPassing clouds.3 mph78%29.92 "HgN/A
6:50 PM70 °FPassing clouds.5 mph78%29.95 "HgN/A
6:20 PM72 °FPassing clouds.6 mph73%29.92 "HgN/A
5:50 PM72 °FPassing clouds.3 mph73%29.92 "HgN/A
5:20 PM72 °FPassing clouds.6 mph73%29.92 "HgN/A
4:50 PM72 °FPassing clouds.3 mph69%29.92 "HgN/A
4:20 PM72 °FPassing clouds.5 mph69%29.92 "HgN/A
3:50 PM73 °FPassing clouds.6 mph65%29.92 "HgN/A
3:20 PM72 °FPassing clouds.1 mph69%29.92 "HgN/A
2:50 PM70 °FPassing clouds.6 mph73%29.95 "HgN/A
2:20 PM70 °FScattered clouds.6 mph78%29.95 "HgN/A
1:50 PM68 °FPassing clouds.5 mph78%29.95 "HgN/A
1:20 PM68 °FScattered clouds.6 mph78%29.95 "Hg6 mi
12:50 PM66 °FPartly sunny.2 mph83%29.95 "Hg5 mi
12:20 PM64 °FBroken clouds.5 mph88%29.95 "Hg5 mi
11:50 AM64 °FBroken clouds.6 mph88%29.95 "Hg4 mi
11:20 AM63 °FBroken clouds.5 mph94%29.95 "Hg4 mi
10:50 AM63 °FBroken clouds.8 mph94%29.95 "Hg4 mi
10:20 AM63 °FBroken clouds.10 mph94%29.92 "Hg4 mi
9:50 AM63 °FFog.6 mph94%29.92 "Hg2 mi
9:20 AM61 °FCool.5 mph94%29.92 "Hg2 mi
8:50 AM61 °FScattered clouds.No wind94%29.92 "Hg4 mi
8:20 AM61 °FScattered clouds.2 mph94%29.92 "HgN/A
7:50 AM61 °FPassing clouds.No wind94%29.92 "HgN/A
7:20 AM61 °FPartly cloudy.3 mph94%29.89 "HgN/A
6:50 AM61 °FPassing clouds.6 mph94%29.89 "HgN/A
6:20 AM61 °FPartly cloudy.6 mph94%29.89 "HgN/A
5:50 AM61 °FPartly cloudy.5 mph94%29.89 "HgN/A
5:20 AM61 °FPassing clouds.1 mph94%29.89 "HgN/A
4:50 AM63 °FPassing clouds.No wind94%29.89 "HgN/A
4:20 AM63 °FMild.No wind94%29.86 "HgN/A
Weather by CustomWeather, © 2014

See weather overviewHow to use our weather pages